This is the latest recevied weather packets stored in our database for station/object KE8URB. If no packets are shown the sender has not sent any weather packets the latest 10 day(s).
| Time | Temp. | Humidity | Pressure | Rain* | Wind** | Luminosity | Snow |
|---|---|---|---|---|---|---|---|
| 1787855336 | 26.67° C | 79% | 1015.2 hPa | 0 mm | - | 232 W/m² | - |
| 1787855031 | 26.11° C | 76% | 1015.3 hPa | 0 mm | - | 167 W/m² | - |
| 1787854727 | 26.67° C | 78% | 1015.4 hPa | 0 mm | - | 141 W/m² | - |
| 1787854426 | 26.67° C | 76% | 1015.4 hPa | 0 mm | - | 88 W/m² | - |
| 1787854127 | 26.67° C | 76% | 1015.4 hPa | 0 mm | - | 86 W/m² | - |
| 1787853821 | 26.67° C | 75% | 1015.4 hPa | 0 mm | - | 88 W/m² | - |
| 1787853520 | 26.11° C | 74% | 1015.1 hPa | 0 mm | - | 116 W/m² | - |
| 1787853215 | 25.56° C | 78% | 1015.3 hPa | 0 mm | - | 79 W/m² | - |
| 1787852914 | 26.11° C | 78% | 1015.4 hPa | 0 mm | - | 79 W/m² | - |
| 1787852609 | 26.11° C | 79% | 1015.3 hPa | 0 mm | - | 78 W/m² | - |
| 1787852309 | 25.56° C | 81% | 1015.3 hPa | 0 mm | - | 89 W/m² | - |
| 1787852008 | 25° C | 79% | 1015.4 hPa | 0 mm | - | 79 W/m² | - |
| 1787851708 | 25.56° C | 82% | 1015.4 hPa | 0 mm | - | 110 W/m² | - |
| 1787851407 | 25.56° C | 83% | 1015.5 hPa | 0 mm | - | 83 W/m² | - |
| 1787851103 | 25.56° C | 82% | 1015.7 hPa | 0 mm | - | 75 W/m² | - |
| 1787850798 | 25.56° C | 82% | 1015.5 hPa | 0 mm | - | 80 W/m² | - |
| 1787850494 | 25° C | 84% | 1015.5 hPa | 0 mm | - | 96 W/m² | - |
| 1787850189 | 25.56° C | 83% | 1015.5 hPa | 0 mm | - | 112 W/m² | - |
| 1787849890 | 25.56° C | 84% | 1015.5 hPa | 0 mm | - | 95 W/m² | - |
| 1787849584 | 25° C | 86% | 1015.6 hPa | 0 mm | - | 87 W/m² | - |
| 1787849283 | 25° C | 87% | 1015.7 hPa | 0 mm | - | 74 W/m² | - |
| 1787848982 | 24.44° C | 86% | 1015.8 hPa | 0 mm | - | 83 W/m² | - |
| 1787848678 | 24.44° C | 85% | 1015.7 hPa | 0 mm | - | 76 W/m² | - |
| 1787848373 | 23.89° C | 87% | 1015.7 hPa | 0 mm | - | 158 W/m² | - |
| 1787848073 | 23.89° C | 87% | 1016 hPa | 0 mm | - | 114 W/m² | - |
* Rain latest hour (hover to see other rain measurements)
** Current wind speed in m/s (hover to see current wind gust speed)